Wetterdaten: Woche 16.07.12 - 22.07.12 (KW29)
Datum Zeit Temp. Innen Temp. Aussen UV X Diff Temp. Feuchte Inne Feuchte Auss Sonnenschein Luftdruck Regen ab 0,1 Wind Sonnenschein T Regendauer Windben
16.07.2012 00:00 20,9 C 12,9 C 0,0 UV-I 0,0 C 63 % 94 % 0 % 1019,8 hPa 0,0 l/m 0,6 km/h (0 Bft) 0,00 h 0,00 h 2,6 km/h (1 Bft)
16.07.2012 01:00 20,8 C 12,4 C 0,0 UV-I 0,0 C 63 % 95 % 0 % 1020,3 hPa 0,0 l/m 0,7 km/h (0 Bft) 0,00 h 0,03 h 2,9 km/h (1 Bft)
16.07.2012 02:00 20,6 C 12,1 C 0,0 UV-I 0,0 C 62 % 95 % 0 % 1020,7 hPa 0,0 l/m 0,6 km/h (0 Bft) 0,00 h 0,00 h 1,1 km/h (1 Bft)
16.07.2012 03:00 20,5 C 12,0 C 0,0 UV-I 0,0 C 62 % 95 % 0 % 1020,8 hPa 0,0 l/m 2,4 km/h (1 Bft) 0,00 h 0,00 h 5,8 km/h (2 Bft)
16.07.2012 04:00 20,4 C 12,0 C 0,0 UV-I 0,0 C 61 % 94 % 0 % 1021,0 hPa 0,0 l/m 2,5 km/h (1 Bft) 0,00 h 0,00 h 6,2 km/h (2 Bft)
16.07.2012 05:00 20,2 C 11,9 C 0,0 UV-I 0,0 C 61 % 94 % 0 % 1020,9 hPa 0,0 l/m 2,4 km/h (1 Bft) 0,00 h 0,00 h 7,1 km/h (2 Bft)
16.07.2012 06:00 20,2 C 12,2 C 0,0 UV-I 0,0 C 61 % 94 % 0 % 1021,1 hPa 0,0 l/m 2,8 km/h (1 Bft) 0,00 h 0,00 h 6,4 km/h (2 Bft)
16.07.2012 07:00 20,2 C 12,6 C 0,1 UV-I 0,4 C 61 % 94 % 12 % 1021,5 hPa 0,0 l/m 4,3 km/h (1 Bft) 0,00 h 0,00 h 8,5 km/h (2 Bft)
16.07.2012 08:00 20,4 C 13,6 C 0,4 UV-I 1,7 C 61 % 93 % 46 % 1022,0 hPa 0,0 l/m 5,3 km/h (1 Bft) 0,10 h 0,00 h 10,2 km/h (2 Bft)
16.07.2012 09:00 20,7 C 14,8 C 1,6 UV-I 4,0 C 60 % 89 % 95 % 1022,3 hPa 0,0 l/m 6,7 km/h (2 Bft) 0,90 h 0,00 h 14,5 km/h (3 Bft)
16.07.2012 10:00 21,1 C 16,0 C 2,7 UV-I 5,1 C 59 % 83 % 100 % 1022,9 hPa 0,0 l/m 7,7 km/h (2 Bft) 1,00 h 0,00 h 13,4 km/h (3 Bft)
16.07.2012 11:00 21,3 C 17,1 C 2,8 UV-I 5,3 C 58 % 76 % 100 % 1022,8 hPa 0,0 l/m 7,7 km/h (2 Bft) 1,00 h 0,00 h 13,4 km/h (3 Bft)
16.07.2012 12:00 21,7 C 17,5 C 1,3 UV-I 3,0 C 56 % 71 % 68 % 1022,8 hPa 0,0 l/m 6,9 km/h (2 Bft) 0,50 h 0,00 h 11,4 km/h (2 Bft)
16.07.2012 13:00 21,7 C 16,8 C 0,8 UV-I 1,3 C 56 % 75 % 37 % 1022,9 hPa 0,0 l/m 5,6 km/h (1 Bft) 0,00 h 0,17 h 8,6 km/h (2 Bft)
16.07.2012 14:00 21,7 C 16,3 C 0,6 UV-I 0,4 C 56 % 78 % 12 % 1022,7 hPa 0,2 l/m 7,1 km/h (2 Bft) 0,00 h 0,60 h 12,8 km/h (3 Bft)
16.07.2012 15:00 21,7 C 15,5 C 1,0 UV-I 1,2 C 57 % 88 % 33 % 1022,2 hPa 0,2 l/m 6,2 km/h (2 Bft) 0,00 h 0,10 h 10,5 km/h (2 Bft)
16.07.2012 16:00 21,9 C 16,3 C 0,7 UV-I 0,8 C 58 % 88 % 24 % 1022,0 hPa 0,1 l/m 5,9 km/h (2 Bft) 0,00 h 0,63 h 11,8 km/h (2 Bft)
16.07.2012 17:00 21,8 C 16,0 C 0,5 UV-I 0,0 C 59 % 89 % 0 % 1021,6 hPa 0,9 l/m 6,4 km/h (2 Bft) 0,00 h 0,73 h 11,0 km/h (2 Bft)
16.07.2012 18:00 21,7 C 15,6 C 0,2 UV-I 0,0 C 60 % 90 % 0 % 1021,3 hPa 0,7 l/m 5,7 km/h (1 Bft) 0,00 h 0,70 h 9,8 km/h (2 Bft)
16.07.2012 19:00 21,4 C 15,2 C 0,0 UV-I 0,0 C 60 % 91 % 0 % 1020,7 hPa 1,6 l/m 5,8 km/h (2 Bft) 0,00 h 0,20 h 11,4 km/h (2 Bft)
16.07.2012 20:00 21,2 C 14,6 C 0,0 UV-I 0,0 C 61 % 92 % 0 % 1020,2 hPa 0,1 l/m 4,1 km/h (1 Bft) 0,00 h 0,10 h 8,9 km/h (2 Bft)
16.07.2012 21:00 20,9 C 14,3 C 0,0 UV-I 0,0 C 61 % 92 % 0 % 1019,7 hPa 0,0 l/m 4,4 km/h (1 Bft) 0,00 h 0,03 h 10,0 km/h (2 Bft)
16.07.2012 22:00 20,8 C 14,1 C 0,0 UV-I 0,0 C 62 % 93 % 0 % 1019,1 hPa 0,1 l/m 7,0 km/h (2 Bft) 0,00 h 0,73 h 13,6 km/h (3 Bft)
16.07.2012 23:00 20,7 C 13,9 C 0,0 UV-I 0,0 C 63 % 95 % 0 % 1018,6 hPa 0,0 l/m 5,5 km/h (1 Bft) 0,00 h 0,23 h 9,9 km/h (2 Bft)
17.07.2012 00:00 20,6 C 14,1 C 0,0 UV-I 0,0 C 63 % 96 % 0 % 1018,1 hPa 0,0 l/m 7,0 km/h (2 Bft) 0,00 h 0,13 h 11,4 km/h (2 Bft)
17.07.2012 01:00 20,6 C 14,6 C 0,0 UV-I 0,0 C 64 % 96 % 0 % 1017,7 hPa 0,0 l/m 6,5 km/h (2 Bft) 0,00 h 0,00 h 13,0 km/h (3 Bft)
17.07.2012 02:00 20,6 C 14,9 C 0,0 UV-I 0,0 C 64 % 96 % 0 % 1017,3 hPa 2,5 l/m 6,6 km/h (2 Bft) 0,00 h 0,30 h 12,9 km/h (3 Bft)
17.07.2012 03:00 20,6 C 14,9 C 0,0 UV-I 0,0 C 65 % 96 % 0 % 1017,2 hPa 1,6 l/m 7,4 km/h (2 Bft) 0,00 h 0,00 h 14,7 km/h (3 Bft)
17.07.2012 04:00 20,6 C 15,1 C 0,0 UV-I 0,0 C 66 % 97 % 0 % 1017,2 hPa 0,1 l/m 8,2 km/h (2 Bft) 0,00 h 0,00 h 14,8 km/h (3 Bft)
17.07.2012 05:00 20,6 C 15,2 C 0,0 UV-I 0,0 C 67 % 97 % 0 % 1017,6 hPa 0,0 l/m 7,2 km/h (2 Bft) 0,00 h 0,20 h 13,0 km/h (3 Bft)
17.07.2012 06:00 20,6 C 15,3 C 0,0 UV-I 0,0 C 67 % 97 % 0 % 1018,1 hPa 0,2 l/m 3,9 km/h (1 Bft) 0,00 h 0,50 h 7,7 km/h (2 Bft)
17.07.2012 07:00 20,5 C 15,2 C 0,0 UV-I 0,0 C 67 % 98 % 0 % 1018,6 hPa 1,5 l/m 4,0 km/h (1 Bft) 0,00 h 0,00 h 9,0 km/h (2 Bft)
17.07.2012 08:00 20,7 C 15,6 C 0,0 UV-I 0,1 C 67 % 98 % 3 % 1018,9 hPa 0,0 l/m 5,5 km/h (1 Bft) 0,00 h 0,00 h 8,9 km/h (2 Bft)
17.07.2012 09:00 20,9 C 15,7 C 0,1 UV-I 0,0 C 67 % 97 % 1 % 1019,5 hPa 1,1 l/m 4,4 km/h (1 Bft) 0,00 h 0,43 h 9,2 km/h (2 Bft)
17.07.2012 10:00 21,1 C 15,8 C 0,1 UV-I 0,0 C 66 % 97 % 0 % 1019,8 hPa 0,2 l/m 6,1 km/h (2 Bft) 0,00 h 0,33 h 11,7 km/h (2 Bft)
17.07.2012 11:00 21,3 C 16,4 C 0,6 UV-I 0,5 C 67 % 98 % 13 % 1020,4 hPa 0,0 l/m 6,3 km/h (2 Bft) 0,00 h 0,00 h 12,0 km/h (2 Bft)
17.07.2012 12:00 21,7 C 17,7 C 1,9 UV-I 3,1 C 66 % 96 % 77 % 1021,0 hPa 0,0 l/m 7,1 km/h (2 Bft) 0,60 h 0,00 h 11,3 km/h (2 Bft)
17.07.2012 13:00 22,2 C 19,0 C 2,1 UV-I 3,8 C 65 % 89 % 92 % 1021,2 hPa 0,0 l/m 9,4 km/h (2 Bft) 0,77 h 0,00 h 14,6 km/h (3 Bft)
17.07.2012 14:00 22,7 C 20,2 C 2,4 UV-I 4,2 C 63 % 80 % 97 % 1021,3 hPa 0,0 l/m 9,9 km/h (2 Bft) 0,93 h 0,00 h 13,4 km/h (3 Bft)
17.07.2012 15:00 23,3 C 20,5 C 1,5 UV-I 2,9 C 61 % 77 % 77 % 1021,4 hPa 0,0 l/m 7,7 km/h (2 Bft) 0,43 h 0,00 h 13,6 km/h (3 Bft)
17.07.2012 16:00 23,5 C 20,8 C 2,0 UV-I 3,4 C 60 % 76 % 93 % 1021,5 hPa 0,0 l/m 8,2 km/h (2 Bft) 0,87 h 0,00 h 17,1 km/h (3 Bft)
17.07.2012 17:00 23,9 C 20,7 C 1,8 UV-I 3,0 C 59 % 74 % 82 % 1021,5 hPa 0,0 l/m 9,9 km/h (2 Bft) 0,63 h 0,00 h 16,7 km/h (3 Bft)
17.07.2012 18:00 23,7 C 20,3 C 0,9 UV-I 1,9 C 58 % 76 % 55 % 1021,4 hPa 0,0 l/m 6,8 km/h (2 Bft) 0,03 h 0,00 h 11,7 km/h (2 Bft)
17.07.2012 19:00 23,4 C 20,1 C 0,5 UV-I 0,8 C 59 % 76 % 24 % 1021,3 hPa 0,0 l/m 6,1 km/h (2 Bft) 0,00 h 0,00 h 10,1 km/h (2 Bft)
17.07.2012 20:00 23,1 C 19,5 C 0,0 UV-I 0,1 C 60 % 80 % 3 % 1021,4 hPa 0,0 l/m 2,1 km/h (1 Bft) 0,00 h 0,00 h 5,6 km/h (1 Bft)
17.07.2012 21:00 22,8 C 18,6 C 0,0 UV-I 0,0 C 61 % 83 % 0 % 1021,6 hPa 0,0 l/m 2,0 km/h (1 Bft) 0,00 h 0,23 h 4,7 km/h (1 Bft)
17.07.2012 22:00 22,5 C 17,3 C 0,0 UV-I 0,0 C 62 % 88 % 0 % 1021,7 hPa 0,0 l/m 0,9 km/h (0 Bft) 0,00 h 0,00 h 2,6 km/h (1 Bft)
17.07.2012 23:00 22,3 C 17,0 C 0,0 UV-I 0,0 C 63 % 91 % 0 % 1021,5 hPa 0,0 l/m 0,4 km/h (0 Bft) 0,00 h 0,00 h 0,5 km/h (0 Bft)
18.07.2012 00:00 22,2 C 17,0 C 0,0 UV-I 0,0 C 63 % 90 % 0 % 1021,0 hPa 0,0 l/m 1,8 km/h (1 Bft) 0,00 h 0,00 h 5,4 km/h (1 Bft)
18.07.2012 01:00 22,1 C 16,9 C 0,0 UV-I 0,0 C 63 % 88 % 0 % 1020,7 hPa 0,0 l/m 1,6 km/h (1 Bft) 0,00 h 0,00 h 4,2 km/h (1 Bft)
18.07.2012 02:00 22,0 C 16,4 C 0,0 UV-I 0,0 C 63 % 89 % 0 % 1020,1 hPa 0,0 l/m 2,4 km/h (1 Bft) 0,00 h 0,00 h 5,7 km/h (1 Bft)
18.07.2012 03:00 21,8 C 15,9 C 0,0 UV-I 0,0 C 63 % 90 % 0 % 1019,2 hPa 0,0 l/m 3,1 km/h (1 Bft) 0,00 h 0,00 h 7,3 km/h (2 Bft)
18.07.2012 04:00 21,7 C 16,1 C 0,0 UV-I 0,0 C 64 % 92 % 0 % 1018,6 hPa 0,0 l/m 4,2 km/h (1 Bft) 0,00 h 0,00 h 7,8 km/h (2 Bft)
18.07.2012 05:00 21,6 C 16,4 C 0,0 UV-I 0,0 C 64 % 93 % 0 % 1017,9 hPa 0,0 l/m 3,7 km/h (1 Bft) 0,00 h 0,00 h 7,9 km/h (2 Bft)
18.07.2012 06:00 21,6 C 16,7 C 0,0 UV-I 0,0 C 65 % 93 % 0 % 1017,5 hPa 0,0 l/m 3,3 km/h (1 Bft) 0,00 h 0,00 h 8,2 km/h (2 Bft)
18.07.2012 07:00 21,8 C 17,2 C 0,0 UV-I 0,2 C 65 % 93 % 5 % 1017,4 hPa 0,0 l/m 3,7 km/h (1 Bft) 0,00 h 0,00 h 8,0 km/h (2 Bft)
18.07.2012 08:00 22,0 C 17,8 C 0,4 UV-I 1,3 C 65 % 91 % 33 % 1017,1 hPa 0,0 l/m 5,2 km/h (1 Bft) 0,20 h 0,00 h 10,4 km/h (2 Bft)
18.07.2012 09:00 22,2 C 19,3 C 2,0 UV-I 4,9 C 65 % 85 % 100 % 1016,8 hPa 0,0 l/m 7,0 km/h (2 Bft) 1,00 h 0,00 h 13,9 km/h (3 Bft)
18.07.2012 10:00 22,5 C 20,0 C 1,5 UV-I 3,5 C 63 % 79 % 87 % 1016,2 hPa 0,0 l/m 6,2 km/h (2 Bft) 0,73 h 0,00 h 11,2 km/h (2 Bft)
18.07.2012 11:00 22,7 C 20,8 C 2,2 UV-I 4,2 C 63 % 77 % 96 % 1015,3 hPa 0,0 l/m 7,0 km/h (2 Bft) 0,93 h 0,00 h 11,9 km/h (2 Bft)
18.07.2012 12:00 23,0 C 21,2 C 1,9 UV-I 3,4 C 62 % 75 % 90 % 1014,6 hPa 0,0 l/m 6,7 km/h (2 Bft) 0,77 h 0,00 h 13,2 km/h (3 Bft)
18.07.2012 13:00 23,2 C 22,2 C 1,8 UV-I 4,1 C 61 % 73 % 99 % 1013,8 hPa 0,0 l/m 7,1 km/h (2 Bft) 0,97 h 0,00 h 13,6 km/h (3 Bft)
18.07.2012 14:00 23,7 C 23,7 C 2,4 UV-I 4,5 C 61 % 69 % 95 % 1012,5 hPa 0,0 l/m 7,1 km/h (2 Bft) 0,87 h 0,00 h 11,9 km/h (2 Bft)
18.07.2012 15:00 24,8 C 25,0 C 2,5 UV-I 4,6 C 58 % 62 % 100 % 1011,2 hPa 0,0 l/m 8,4 km/h (2 Bft) 1,00 h 0,00 h 16,0 km/h (3 Bft)
18.07.2012 16:00 25,6 C 25,1 C 2,3 UV-I 3,4 C 55 % 59 % 94 % 1010,6 hPa 0,0 l/m 8,9 km/h (2 Bft) 0,83 h 0,00 h 17,3 km/h (3 Bft)
18.07.2012 17:00 25,5 C 24,0 C 1,5 UV-I 2,4 C 55 % 63 % 69 % 1010,2 hPa 0,0 l/m 8,2 km/h (2 Bft) 0,10 h 0,00 h 13,2 km/h (3 Bft)
18.07.2012 18:00 25,0 C 22,6 C 0,9 UV-I 1,6 C 55 % 64 % 46 % 1010,1 hPa 0,0 l/m 8,3 km/h (2 Bft) 0,00 h 0,00 h 17,7 km/h (3 Bft)
18.07.2012 19:00 24,6 C 21,2 C 0,4 UV-I 0,7 C 56 % 66 % 19 % 1010,2 hPa 0,0 l/m 7,1 km/h (2 Bft) 0,00 h 0,00 h 14,2 km/h (3 Bft)
18.07.2012 20:00 24,2 C 20,2 C 0,0 UV-I 0,0 C 56 % 66 % 1 % 1009,9 hPa 0,0 l/m 4,8 km/h (1 Bft) 0,00 h 0,00 h 8,0 km/h (2 Bft)
18.07.2012 21:00 23,8 C 19,1 C 0,0 UV-I 0,0 C 56 % 71 % 0 % 1009,8 hPa 0,0 l/m 2,9 km/h (1 Bft) 0,00 h 0,00 h 7,3 km/h (2 Bft)
18.07.2012 22:00 23,4 C 18,4 C 0,0 UV-I 0,0 C 57 % 71 % 0 % 1009,8 hPa 0,0 l/m 2,9 km/h (1 Bft) 0,00 h 0,03 h 7,8 km/h (2 Bft)
18.07.2012 23:00 23,2 C 17,4 C 0,0 UV-I 0,0 C 57 % 75 % 0 % 1009,7 hPa 0,0 l/m 5,3 km/h (1 Bft) 0,00 h 0,17 h 9,3 km/h (2 Bft)
19.07.2012 00:00 22,9 C 15,6 C 0,0 UV-I 0,0 C 58 % 86 % 0 % 1009,2 hPa 0,0 l/m 2,6 km/h (1 Bft) 0,00 h 0,10 h 6,6 km/h (2 Bft)
19.07.2012 01:00 22,7 C 15,1 C 0,0 UV-I 0,0 C 59 % 90 % 0 % 1008,6 hPa 0,0 l/m 3,7 km/h (1 Bft) 0,00 h 0,00 h 7,9 km/h (2 Bft)
19.07.2012 02:00 22,5 C 15,7 C 0,0 UV-I 0,0 C 60 % 90 % 0 % 1007,8 hPa 0,0 l/m 4,6 km/h (1 Bft) 0,00 h 0,00 h 9,3 km/h (2 Bft)
19.07.2012 03:00 22,4 C 16,2 C 0,0 UV-I 0,0 C 60 % 89 % 0 % 1006,7 hPa 0,0 l/m 5,1 km/h (1 Bft) 0,00 h 0,00 h 9,6 km/h (2 Bft)
19.07.2012 04:00 22,4 C 16,4 C 0,0 UV-I 0,0 C 60 % 88 % 0 % 1006,1 hPa 0,0 l/m 7,3 km/h (2 Bft) 0,00 h 0,00 h 12,0 km/h (2 Bft)
19.07.2012 05:00 22,3 C 16,6 C 0,0 UV-I 0,0 C 60 % 88 % 0 % 1005,7 hPa 0,9 l/m 7,2 km/h (2 Bft) 0,00 h 0,00 h 15,5 km/h (3 Bft)
19.07.2012 06:00 22,3 C 16,4 C 0,0 UV-I 0,0 C 61 % 88 % 0 % 1005,8 hPa 0,0 l/m 6,2 km/h (2 Bft) 0,00 h 0,00 h 13,0 km/h (3 Bft)
19.07.2012 07:00 22,3 C 16,5 C 0,1 UV-I 0,0 C 61 % 87 % 1 % 1005,8 hPa 0,0 l/m 7,5 km/h (2 Bft) 0,00 h 0,00 h 16,1 km/h (3 Bft)
19.07.2012 08:00 22,4 C 17,0 C 0,5 UV-I 1,0 C 60 % 82 % 29 % 1006,3 hPa 0,0 l/m 9,2 km/h (2 Bft) 0,00 h 0,00 h 15,1 km/h (3 Bft)
19.07.2012 09:00 22,5 C 17,3 C 1,1 UV-I 2,2 C 59 % 80 % 63 % 1006,8 hPa 0,0 l/m 10,5 km/h (2 Bft) 0,13 h 0,00 h 20,3 km/h (4 Bft)
19.07.2012 10:00 22,6 C 18,0 C 2,3 UV-I 3,4 C 58 % 79 % 90 % 1007,5 hPa 0,0 l/m 12,8 km/h (3 Bft) 0,77 h 0,00 h 22,6 km/h (4 Bft)
19.07.2012 11:00 22,8 C 18,9 C 2,5 UV-I 4,1 C 58 % 74 % 91 % 1007,6 hPa 0,0 l/m 10,8 km/h (2 Bft) 0,83 h 0,00 h 19,6 km/h (3 Bft)
19.07.2012 12:00 23,0 C 19,7 C 2,3 UV-I 4,5 C 57 % 71 % 99 % 1007,8 hPa 0,0 l/m 11,2 km/h (2 Bft) 1,00 h 0,00 h 19,5 km/h (3 Bft)
19.07.2012 13:00 23,3 C 20,7 C 2,2 UV-I 4,3 C 56 % 66 % 99 % 1008,1 hPa 0,0 l/m 12,4 km/h (3 Bft) 1,00 h 0,00 h 18,7 km/h (3 Bft)
19.07.2012 14:00 23,8 C 20,7 C 1,9 UV-I 3,0 C 54 % 64 % 83 % 1008,5 hPa 0,0 l/m 10,3 km/h (2 Bft) 0,53 h 0,07 h 17,3 km/h (3 Bft)
19.07.2012 15:00 24,3 C 20,9 C 1,6 UV-I 2,8 C 53 % 61 % 77 % 1008,8 hPa 0,0 l/m 10,5 km/h (2 Bft) 0,40 h 0,00 h 18,3 km/h (3 Bft)
19.07.2012 16:00 24,9 C 21,0 C 1,9 UV-I 3,2 C 51 % 62 % 81 % 1008,9 hPa 0,0 l/m 8,7 km/h (2 Bft) 0,50 h 0,00 h 15,6 km/h (3 Bft)
19.07.2012 17:00 24,7 C 19,3 C 0,3 UV-I 0,4 C 50 % 69 % 11 % 1009,6 hPa 1,1 l/m 7,5 km/h (2 Bft) 0,00 h 0,37 h 13,5 km/h (3 Bft)
19.07.2012 18:00 24,1 C 17,2 C 0,3 UV-I 0,0 C 53 % 84 % 0 % 1010,1 hPa 1,4 l/m 3,1 km/h (1 Bft) 0,00 h 0,10 h 6,5 km/h (2 Bft)
19.07.2012 19:00 23,6 C 16,5 C 0,0 UV-I 0,0 C 55 % 88 % 0 % 1010,5 hPa 1,5 l/m 2,4 km/h (1 Bft) 0,00 h 0,20 h 7,2 km/h (2 Bft)
19.07.2012 20:00 23,2 C 15,9 C 0,0 UV-I 0,0 C 57 % 89 % 0 % 1011,2 hPa 0,0 l/m 2,7 km/h (1 Bft) 0,00 h 0,00 h 6,8 km/h (2 Bft)
19.07.2012 21:00 22,9 C 15,3 C 0,0 UV-I 0,0 C 58 % 91 % 0 % 1011,6 hPa 0,0 l/m 1,1 km/h (1 Bft) 0,00 h 0,10 h 2,3 km/h (1 Bft)
19.07.2012 22:00 22,6 C 14,8 C 0,0 UV-I 0,0 C 59 % 92 % 0 % 1012,3 hPa 0,0 l/m 0,5 km/h (0 Bft) 0,00 h 0,30 h 1,9 km/h (1 Bft)
19.07.2012 23:00 22,3 C 14,5 C 0,0 UV-I 0,0 C 60 % 93 % 0 % 1012,5 hPa 0,0 l/m 0,4 km/h (0 Bft) 0,00 h 0,00 h 2,1 km/h (1 Bft)
20.07.2012 00:00 22,2 C 14,5 C 0,0 UV-I 0,0 C 61 % 93 % 0 % 1012,5 hPa 0,0 l/m 0,6 km/h (0 Bft) 0,00 h 0,03 h 1,4 km/h (1 Bft)
20.07.2012 01:00 22,1 C 14,4 C 0,0 UV-I 0,0 C 61 % 94 % 0 % 1012,8 hPa 0,0 l/m 0,0 km/h (0 Bft) 0,00 h 0,00 h 0,4 km/h (0 Bft)
20.07.2012 02:00 22,0 C 14,3 C 0,0 UV-I 0,0 C 61 % 94 % 0 % 1012,8 hPa 0,0 l/m 0,1 km/h (0 Bft) 0,00 h 0,00 h 0,7 km/h (0 Bft)
20.07.2012 03:00 21,9 C 14,1 C 0,0 UV-I 0,0 C 61 % 95 % 0 % 1012,8 hPa 0,0 l/m 0,1 km/h (0 Bft) 0,00 h 0,00 h 0,0 km/h (0 Bft)
20.07.2012 04:00 21,8 C 14,0 C 0,0 UV-I 0,0 C 62 % 95 % 0 % 1012,9 hPa 0,0 l/m 0,0 km/h (0 Bft) 0,00 h 0,00 h 0,0 km/h (0 Bft)
20.07.2012 05:00 21,7 C 13,8 C 0,0 UV-I 0,0 C 62 % 95 % 0 % 1013,3 hPa 0,0 l/m 0,1 km/h (0 Bft) 0,00 h 0,03 h 0,8 km/h (0 Bft)
20.07.2012 06:00 21,6 C 13,7 C 0,0 UV-I 0,0 C 62 % 95 % 0 % 1013,4 hPa 0,0 l/m 0,0 km/h (0 Bft) 0,00 h 0,00 h 0,0 km/h (0 Bft)
20.07.2012 07:00 21,7 C 14,0 C 0,0 UV-I 0,2 C 62 % 96 % 6 % 1013,9 hPa 0,0 l/m 0,1 km/h (0 Bft) 0,00 h 0,00 h 0,6 km/h (0 Bft)
20.07.2012 08:00 21,8 C 14,5 C 0,2 UV-I 1,2 C 62 % 96 % 35 % 1014,2 hPa 0,0 l/m 1,2 km/h (1 Bft) 0,00 h 0,00 h 3,4 km/h (1 Bft)
20.07.2012 09:00 22,0 C 15,1 C 0,6 UV-I 2,5 C 61 % 94 % 71 % 1014,6 hPa 0,0 l/m 0,8 km/h (0 Bft) 0,43 h 0,00 h 1,6 km/h (1 Bft)
20.07.2012 10:00 22,4 C 16,1 C 1,3 UV-I 4,3 C 60 % 88 % 100 % 1014,9 hPa 0,0 l/m 2,0 km/h (1 Bft) 1,00 h 0,00 h 4,7 km/h (1 Bft)
20.07.2012 11:00 22,8 C 16,8 C 1,2 UV-I 4,0 C 59 % 82 % 95 % 1014,8 hPa 0,0 l/m 1,9 km/h (1 Bft) 0,87 h 0,00 h 4,6 km/h (1 Bft)
20.07.2012 12:00 23,0 C 17,5 C 1,5 UV-I 4,5 C 58 % 78 % 95 % 1014,9 hPa 0,0 l/m 3,8 km/h (1 Bft) 0,87 h 0,00 h 7,6 km/h (2 Bft)
20.07.2012 13:00 23,3 C 18,3 C 1,7 UV-I 4,2 C 57 % 74 % 90 % 1014,8 hPa 0,0 l/m 5,0 km/h (1 Bft) 0,73 h 0,00 h 9,4 km/h (2 Bft)
20.07.2012 14:00 23,4 C 18,4 C 1,0 UV-I 2,5 C 56 % 73 % 70 % 1014,9 hPa 0,0 l/m 4,0 km/h (1 Bft) 0,13 h 0,00 h 7,8 km/h (2 Bft)
20.07.2012 15:00 23,6 C 18,9 C 1,6 UV-I 3,8 C 56 % 71 % 88 % 1014,7 hPa 0,0 l/m 3,1 km/h (1 Bft) 0,60 h 0,00 h 6,6 km/h (2 Bft)
20.07.2012 16:00 24,1 C 19,4 C 0,8 UV-I 2,7 C 55 % 68 % 62 % 1014,8 hPa 0,0 l/m 2,9 km/h (1 Bft) 0,40 h 0,00 h 8,0 km/h (2 Bft)
20.07.2012 17:00 23,7 C 17,7 C 0,0 UV-I 0,2 C 55 % 77 % 4 % 1015,1 hPa 0,0 l/m 1,9 km/h (1 Bft) 0,00 h 0,10 h 5,9 km/h (2 Bft)
20.07.2012 18:00 23,2 C 16,9 C 0,3 UV-I 1,0 C 57 % 85 % 30 % 1014,9 hPa 0,0 l/m 0,7 km/h (0 Bft) 0,00 h 0,00 h 2,3 km/h (1 Bft)
20.07.2012 19:00 23,2 C 17,6 C 0,2 UV-I 1,0 C 57 % 84 % 29 % 1015,4 hPa 0,0 l/m 1,3 km/h (1 Bft) 0,00 h 0,00 h 4,2 km/h (1 Bft)
20.07.2012 20:00 23,0 C 17,1 C 0,0 UV-I 0,0 C 58 % 81 % 0 % 1016,1 hPa 0,0 l/m 1,4 km/h (1 Bft) 0,00 h 0,00 h 3,7 km/h (1 Bft)
20.07.2012 21:00 22,7 C 16,3 C 0,0 UV-I 0,0 C 58 % 82 % 0 % 1016,2 hPa 0,0 l/m 0,1 km/h (0 Bft) 0,00 h 0,07 h 0,0 km/h (0 Bft)
20.07.2012 22:00 22,5 C 15,7 C 0,0 UV-I 0,0 C 59 % 86 % 0 % 1017,0 hPa 0,0 l/m 0,2 km/h (0 Bft) 0,00 h 0,00 h 1,0 km/h (0 Bft)
20.07.2012 23:00 22,2 C 15,2 C 0,0 UV-I 0,0 C 60 % 88 % 0 % 1017,3 hPa 0,0 l/m 0,4 km/h (0 Bft) 0,00 h 0,10 h 1,4 km/h (1 Bft)
21.07.2012 00:00 22,1 C 14,9 C 0,0 UV-I 0,0 C 60 % 88 % 0 % 1017,7 hPa 0,0 l/m 3,3 km/h (1 Bft) 0,00 h 0,00 h 7,3 km/h (2 Bft)
21.07.2012 01:00 22,0 C 14,4 C 0,0 UV-I 0,0 C 60 % 85 % 0 % 1018,0 hPa 0,0 l/m 2,7 km/h (1 Bft) 0,00 h 0,00 h 5,3 km/h (1 Bft)
21.07.2012 02:00 21,8 C 14,0 C 0,0 UV-I 0,0 C 60 % 85 % 0 % 1018,0 hPa 0,0 l/m 1,6 km/h (1 Bft) 0,00 h 0,00 h 5,0 km/h (1 Bft)
21.07.2012 03:00 21,7 C 13,5 C 0,0 UV-I 0,0 C 60 % 86 % 0 % 1018,2 hPa 0,0 l/m 1,9 km/h (1 Bft) 0,00 h 0,00 h 4,3 km/h (1 Bft)
21.07.2012 04:00 21,6 C 13,1 C 0,0 UV-I 0,0 C 60 % 87 % 0 % 1018,7 hPa 0,0 l/m 2,5 km/h (1 Bft) 0,00 h 0,00 h 5,4 km/h (1 Bft)
21.07.2012 05:00 21,4 C 12,7 C 0,0 UV-I 0,0 C 60 % 88 % 0 % 1018,9 hPa 0,0 l/m 0,6 km/h (0 Bft) 0,00 h 0,00 h 1,2 km/h (1 Bft)
21.07.2012 06:00 21,2 C 11,7 C 0,0 UV-I 0,0 C 59 % 89 % 0 % 1019,4 hPa 0,0 l/m 0,9 km/h (0 Bft) 0,00 h 0,00 h 2,6 km/h (1 Bft)
21.07.2012 07:00 21,2 C 12,0 C 0,1 UV-I 0,3 C 59 % 91 % 8 % 1019,9 hPa 0,0 l/m 4,4 km/h (1 Bft) 0,00 h 0,00 h 8,2 km/h (2 Bft)
21.07.2012 08:00 21,2 C 13,2 C 0,7 UV-I 3,4 C 59 % 87 % 64 % 1020,7 hPa 0,0 l/m 5,6 km/h (1 Bft) 0,50 h 0,00 h 9,2 km/h (2 Bft)
21.07.2012 09:00 21,3 C 14,9 C 2,7 UV-I 8,2 C 59 % 78 % 100 % 1021,0 hPa 0,0 l/m 7,6 km/h (2 Bft) 1,00 h 0,00 h 14,2 km/h (3 Bft)
21.07.2012 10:00 21,5 C 16,2 C 3,8 UV-I 7,2 C 58 % 69 % 100 % 1021,0 hPa 0,0 l/m 6,2 km/h (2 Bft) 1,00 h 0,00 h 11,6 km/h (2 Bft)
21.07.2012 11:00 21,8 C 17,0 C 2,2 UV-I 5,4 C 57 % 65 % 98 % 1021,3 hPa 0,0 l/m 5,7 km/h (1 Bft) 1,00 h 0,00 h 10,6 km/h (2 Bft)
21.07.2012 12:00 22,3 C 17,1 C 1,5 UV-I 3,3 C 56 % 65 % 89 % 1021,5 hPa 0,0 l/m 6,6 km/h (2 Bft) 0,87 h 0,00 h 11,8 km/h (2 Bft)
21.07.2012 13:00 22,8 C 17,8 C 2,1 UV-I 5,7 C 56 % 64 % 98 % 1021,3 hPa 0,0 l/m 7,4 km/h (2 Bft) 0,93 h 0,00 h 12,7 km/h (3 Bft)
21.07.2012 14:00 23,2 C 17,7 C 2,0 UV-I 3,6 C 55 % 64 % 87 % 1021,8 hPa 0,0 l/m 9,3 km/h (2 Bft) 0,60 h 0,00 h 15,9 km/h (3 Bft)
21.07.2012 15:00 24,0 C 18,5 C 1,9 UV-I 4,8 C 53 % 62 % 96 % 1022,0 hPa 0,0 l/m 7,5 km/h (2 Bft) 0,90 h 0,00 h 12,1 km/h (2 Bft)
21.07.2012 16:00 24,1 C 17,9 C 0,9 UV-I 2,1 C 52 % 63 % 58 % 1022,3 hPa 0,0 l/m 6,0 km/h (2 Bft) 0,17 h 0,00 h 9,9 km/h (2 Bft)
21.07.2012 17:00 23,9 C 17,8 C 0,4 UV-I 1,4 C 51 % 62 % 38 % 1022,8 hPa 0,0 l/m 8,7 km/h (2 Bft) 0,13 h 0,00 h 14,0 km/h (3 Bft)
21.07.2012 18:00 23,5 C 17,5 C 0,4 UV-I 0,9 C 52 % 63 % 26 % 1023,3 hPa 0,0 l/m 7,1 km/h (2 Bft) 0,00 h 0,00 h 12,7 km/h (3 Bft)
21.07.2012 19:00 23,2 C 17,2 C 0,1 UV-I 0,3 C 52 % 66 % 8 % 1023,7 hPa 0,0 l/m 7,7 km/h (2 Bft) 0,00 h 0,00 h 14,1 km/h (3 Bft)
21.07.2012 20:00 22,9 C 16,5 C 0,0 UV-I 0,0 C 53 % 69 % 0 % 1023,9 hPa 0,0 l/m 4,1 km/h (1 Bft) 0,00 h 0,00 h 6,9 km/h (2 Bft)
21.07.2012 21:00 22,6 C 16,1 C 0,0 UV-I 0,0 C 54 % 72 % 0 % 1024,3 hPa 0,0 l/m 2,3 km/h (1 Bft) 0,00 h 0,00 h 4,4 km/h (1 Bft)
21.07.2012 22:00 22,2 C 14,6 C 0,0 UV-I 0,0 C 55 % 76 % 0 % 1024,8 hPa 0,0 l/m 0,0 km/h (0 Bft) 0,00 h 0,00 h 0,0 km/h (0 Bft)
21.07.2012 23:00 21,8 C 12,9 C 0,0 UV-I 0,0 C 56 % 82 % 0 % 1025,4 hPa 0,0 l/m 0,0 km/h (0 Bft) 0,00 h 0,00 h 0,0 km/h (0 Bft)
22.07.2012 00:00 21,5 C 11,6 C 0,0 UV-I 0,0 C 56 % 87 % 0 % 1025,4 hPa 0,0 l/m 0,0 km/h (0 Bft) 0,00 h 0,00 h 0,0 km/h (0 Bft)
22.07.2012 01:00 21,2 C 10,7 C 0,0 UV-I 0,0 C 57 % 89 % 0 % 1025,7 hPa 0,0 l/m 0,0 km/h (0 Bft) 0,00 h 0,00 h 0,0 km/h (0 Bft)
22.07.2012 02:00 21,0 C 10,1 C 0,0 UV-I 0,0 C 57 % 91 % 0 % 1025,9 hPa 0,0 l/m 0,0 km/h (0 Bft) 0,00 h 0,00 h 0,0 km/h (0 Bft)
22.07.2012 03:00 20,8 C 9,7 C 0,0 UV-I 0,0 C 57 % 92 % 0 % 1026,4 hPa 0,0 l/m 0,0 km/h (0 Bft) 0,00 h 0,07 h 0,0 km/h (0 Bft)
22.07.2012 04:00 20,6 C 9,3 C 0,0 UV-I 0,0 C 56 % 93 % 0 % 1026,5 hPa 0,0 l/m 0,0 km/h (0 Bft) 0,00 h 0,03 h 0,0 km/h (0 Bft)
22.07.2012 05:00 20,5 C 8,8 C 0,0 UV-I 0,0 C 56 % 94 % 0 % 1026,8 hPa 0,0 l/m 0,0 km/h (0 Bft) 0,00 h 0,03 h 0,0 km/h (0 Bft)
22.07.2012 06:00 20,4 C 8,6 C 0,0 UV-I 0,0 C 56 % 94 % 0 % 1026,9 hPa 0,0 l/m 0,0 km/h (0 Bft) 0,00 h 0,00 h 0,0 km/h (0 Bft)
22.07.2012 07:00 20,4 C 9,5 C 0,1 UV-I 0,0 C 56 % 96 % 0 % 1027,1 hPa 0,0 l/m 0,1 km/h (0 Bft) 0,00 h 0,00 h 0,6 km/h (0 Bft)
22.07.2012 08:00 20,4 C 11,6 C 0,5 UV-I 3,9 C 57 % 96 % 55 % 1027,5 hPa 0,0 l/m 0,7 km/h (0 Bft) 0,53 h 0,00 h 2,5 km/h (1 Bft)
22.07.2012 09:00 20,6 C 15,1 C 2,5 UV-I 9,5 C 57 % 91 % 100 % 1027,7 hPa 0,0 l/m 0,9 km/h (0 Bft) 1,00 h 0,00 h 3,1 km/h (1 Bft)
22.07.2012 10:00 20,8 C 17,7 C 4,1 UV-I 10,0 C 57 % 76 % 100 % 1028,0 hPa 0,0 l/m 2,1 km/h (1 Bft) 1,00 h 0,00 h 6,3 km/h (2 Bft)
22.07.2012 11:00 21,1 C 17,9 C 3,0 UV-I 7,1 C 57 % 64 % 100 % 1028,1 hPa 0,0 l/m 5,7 km/h (1 Bft) 1,00 h 0,00 h 9,8 km/h (2 Bft)
22.07.2012 12:00 21,8 C 18,6 C 2,6 UV-I 6,9 C 56 % 62 % 100 % 1028,3 hPa 0,0 l/m 5,6 km/h (1 Bft) 1,00 h 0,00 h 11,2 km/h (2 Bft)
22.07.2012 13:00 22,4 C 19,5 C 2,5 UV-I 6,8 C 54 % 59 % 100 % 1028,0 hPa 0,0 l/m 2,7 km/h (1 Bft) 1,00 h 0,00 h 5,3 km/h (1 Bft)
22.07.2012 14:00 23,1 C 19,8 C 2,3 UV-I 4,9 C 53 % 58 % 100 % 1027,9 hPa 0,0 l/m 4,1 km/h (1 Bft) 1,00 h 0,00 h 7,9 km/h (2 Bft)
22.07.2012 15:00 24,5 C 21,1 C 2,8 UV-I 6,5 C 50 % 54 % 100 % 1027,4 hPa 0,0 l/m 4,4 km/h (1 Bft) 1,00 h 0,00 h 9,1 km/h (2 Bft)
22.07.2012 16:00 25,7 C 22,1 C 3,5 UV-I 6,1 C 46 % 52 % 100 % 1026,7 hPa 0,0 l/m 2,2 km/h (1 Bft) 1,00 h 0,00 h 5,3 km/h (1 Bft)
22.07.2012 17:00 25,2 C 22,2 C 3,5 UV-I 6,1 C 46 % 51 % 100 % 1026,7 hPa 0,0 l/m 4,1 km/h (1 Bft) 1,00 h 0,00 h 7,1 km/h (2 Bft)
22.07.2012 18:00 24,6 C 21,3 C 1,3 UV-I 3,6 C 48 % 52 % 73 % 1027,1 hPa 0,0 l/m 3,7 km/h (1 Bft) 0,60 h 0,00 h 7,3 km/h (2 Bft)
22.07.2012 19:00 23,9 C 20,7 C 0,5 UV-I 0,1 C 48 % 54 % 3 % 1026,6 hPa 0,0 l/m 1,6 km/h (1 Bft) 0,00 h 0,00 h 3,5 km/h (1 Bft)
22.07.2012 20:00 23,5 C 20,1 C 0,1 UV-I 0,0 C 50 % 56 % 0 % 1026,5 hPa 0,0 l/m 0,7 km/h (0 Bft) 0,00 h 0,00 h 2,0 km/h (1 Bft)
22.07.2012 21:00 23,3 C 18,4 C 0,0 UV-I 0,0 C 51 % 63 % 0 % 1026,7 hPa 0,0 l/m 0,1 km/h (0 Bft) 0,00 h 0,00 h 0,3 km/h (0 Bft)
22.07.2012 22:00 23,0 C 16,1 C 0,0 UV-I 0,0 C 52 % 72 % 0 % 1027,1 hPa 0,0 l/m 0,0 km/h (0 Bft) 0,00 h 0,00 h 0,0 km/h (0 Bft)
22.07.2012 23:00 22,6 C 14,4 C 0,0 UV-I 0,0 C 53 % 80 % 0 % 1027,2 hPa 0,0 l/m 0,0 km/h (0 Bft) 0,00 h 0,00 h 0,0 km/h (0 Bft)
Min-Datum _ 16.07.12 22.07.12 16.07.12 16.07.12 22.07.12 22.07.12 16.07.12 19.07.12 - 16.07.12 - - 16.07.12
_ Min-Zeit 04:40 06:18 00:00 00:00 16:28 16:58 00:00 05:12 - 00:16 - - 00:08
Minimum _ 20,2 C 8,5 C 0,0 UV-I 0,0 C 45 % 49 % 0 % 1005,6 hPa - 0,0 km/h (0 Bft) - - 0,0 km/h (0 Bft)
Max-Datum _ 22.07.12 18.07.12 22.07.12 22.07.12 17.07.12 17.07.12 16.07.12 22.07.12 17.07.12 19.07.12 16.07.12 16.07.12 19.07.12
_ Max-Zeit 16:42 15:40 10:40 10:42 08:00 06:36 08:56 12:32 02:18 10:24 08:54 01:56 11:32
Maximum _ 25,9 C 25,7 C 5,3 UV-I 11,2 C 68 % 98 % 100 % 1028,4 hPa 2,5 l/m 14,9 km/h
S (3 Bft)
0,03 h 0,03 h 55,8 km/h
SO (7 Bft)
Durchschnitt _ 22,3 C 16,5 C 0,7 UV-I 1,6 C 59 % 82 % 33 % 1018,1 hPa #16,2 l/m 4,3 km/h (1 Bft) #42:36 h #8:22 h 8,3 km/h (2 Bft)
© 2012 W. Hausmann